STARLINK-1068, 44772

Orbit data source: Space-Track

STARLINK-1068, 44772 is a payload satellite owned by SpaceX/Seattle (US) in LEO that was launched on Mon, 11 Nov 2019 UTC via an FALCON 9 launch vehicle from the Air Force Eastern Test Range (AFETR). Payload-class satellites include a variety of spacecraft equipped with specific instruments for various scientific and technological missions. These include communications satellites like Starlink; space stations such as the ISS; scientific satellites like the Hubble; Earth observation satellites from companies like Planet Labs, Umbra, and HawkEye 360; GPS; miniature CubeSats for education and research; and military/defense satellites.

Loading next visibility...
Identifier
44772, 2019-074BM
Orbit
LEO
Country
Flag of USUS
Related business
Manufacturer
SpaceX/Seattle
Mission
Partially operational Commercial Communications
Bus & Motor
STARLINK, Unknown motor
Mass
260 kg wet, ~248 kg dry
Launch date (UTC)
2019-11-11 (7 years ago)
Launch vehicle
FALCON 9
Launch site
Air Force Eastern Test Range (AFETR)
Object type
Payload
Rocket body
Debris
Shape & HBR
Box + 1 Pan, 10.1 m
Radar Cross Section
13.562 m², Large (>1 m²)

Expand to show TLE details & history
Last TLE update: 2 days ago

TLE from 2 days ago
0 STARLINK-1068
1 44772U 19074BM  26171.40233340  .00077640  00000-0  46450-3 0  9997
2 44772  53.0405  31.6904 0001935 211.1982 148.8923 15.77185156364989
Epoch: 2026-06-20T09:39Z
TLE epoch observation values (Epoch: 2026-06-20T09:39:21.605Z)
Latitude
-0.00003°
Longitude
-21.76712°
Altitude
340.438 km
Speed
7.705 km/s
True Right ascension
02h 06m 45s
True Declination
0° 00' 00"
Sunlit
Object was in daylight at epoch
Visualization orbit readout
Latitude
Unknown
Longitude
Unknown
Altitude
Unknown
Speed
Unknown
Apparent Right ascension
Unknown
Apparent Declination
Unknown
Sunlit
N/A
Visualization observer readout
Local Sidereal Time
21:36:04
Azimuth
Unknown
Elevation
Unknown
Doppler factor
Unknown
Orbital elements
Apogee altitude
340.001 km
Perigee altitude
337.402 km
Semi-major axis
6,716.838 km
Eccentricity
0.00019
Inclination
53.0405°
RAAN
31.6904°
Arg. of periapsis
211.1982°
True anomaly
148.90375°
Mean anomaly
148.8923°
Eccentric anomaly
148.89803°
Mean motion
3.94272 °/min
Orbital period
91.31 mins
BSTAR
0.0004645
Loading maneuver chart data...
Computing Atmospheric mass density...

Documentation

Showing up to 5 results
|